Weather History for KLOZ - September, 2013

Change the Weather History Date:

Wednesday, September 25, 2013

  Actual Average Record
Temperature  
Mean Temperature 69 °F 65 °F  
Max Temperature 74 °F 76 °F 90 °F (1961)
Min Temperature 63 °F 53 °F 35 °F (1965)
Degree Days  
Heating Degree Days 0 3  
Month to date heating degree days 14 26  
Since 1 July heating degree days 14 27  
Cooling Degree Days 4 3  
Month to date cooling degree days 143 132  
Year to date cooling degree days 1035 1156  
Growing Degree Days 18 (Base 50)    
Moisture  
Dew Point 62 °F    
Average Humidity 79    
Maximum Humidity 93    
Minimum Humidity 64    
Precipitation  
Precipitation 0.37 in 0.11 in 1.42 in (2000)
Month to date precipitation 2.61 2.80  
Year to date precipitation 43.65 35.48  
Sea Level Pressure  
Sea Level Pressure 29.88 in    
Wind  
Wind Speed 2 mph (ESE)    
Max Wind Speed 10 mph    
Max Gust Speed 14 mph    
Visibility 7 miles    
Events Fog , Rain , Thunderstorm    
T = Trace of Precipitation, MM = Missing Value Source: NWS Daily Summary

Daily Weather History Graph

Daily Weather History Graph

Search for Another Location

Airport or City:

Trip Planner

Search our weather history database for the weather conditions in past years. The results will help you decide how hot, cold, wet, or windy it might be!

Date:

Astronomy

Sep. 25, 2013 Rise Set
Actual Time 7:26 AM EDT 7:28 PM EDT
Civil Twilight 7:00 AM EDT 7:54 PM EDT
Nautical Twilight 6:30 AM EDT 8:24 PM EDT
Astronomical Twilight 6:00 AM EDT 8:54 PM EDT
Moon 11:41 PM EDT 1:24 PM EDT
Length of Visible Light 12h 53m
Length of Day
12h 01m
Waning Gibbous, 64% of the Moon is Illuminated
Sep 25
Waning Gibbous
Sep 26
Last Quarter
Oct 4
New
Oct 11
First Quarter
Oct 18
Full

Hourly Weather History & Observations

Time (EDT) Temp. Dew Point Humidity Pressure Visibility Wind Dir Wind Speed Gust Speed Precip Events Conditions
12:53 AM 66.0 °F 61.0 °F 84% 29.89 in 10.0 mi Calm Calm - N/A   Overcast
1:53 AM 64.9 °F 61.0 °F 87% 29.87 in 10.0 mi Calm Calm - N/A   Mostly Cloudy
2:53 AM 64.9 °F 60.1 °F 84% 29.86 in 10.0 mi Calm Calm - N/A   Overcast
3:53 AM 66.0 °F 61.0 °F 84% 29.85 in 10.0 mi Calm Calm - N/A   Overcast
4:53 AM 64.9 °F 61.0 °F 87% 29.85 in 10.0 mi Calm Calm - N/A   Mostly Cloudy
5:53 AM 64.0 °F 61.0 °F 90% 29.84 in 10.0 mi Calm Calm - 0.00 in   Partly Cloudy
6:53 AM 64.0 °F 61.0 °F 90% 29.85 in 10.0 mi West 3.5 mph - 0.00 in Rain Light Rain
7:53 AM 64.0 °F 61.0 °F 90% 29.86 in 10.0 mi Calm Calm - 0.00 in   Mostly Cloudy
8:41 AM 64.4 °F 60.8 °F 88% 29.91 in 10.0 mi Calm Calm - N/A   Overcast
8:51 AM 64.4 °F 60.8 °F 88% 29.91 in 10.0 mi Calm Calm - N/A   Overcast
8:53 AM 64.0 °F 61.0 °F 90% 29.88 in 10.0 mi Calm Calm - N/A   Overcast
9:53 AM 70.0 °F 62.1 °F 76% 29.88 in 10.0 mi Calm Calm - N/A   Clear
10:21 AM 71.6 °F 62.6 °F 73% 29.91 in 10.0 mi Variable 3.5 mph - N/A   Mostly Cloudy
10:53 AM 73.0 °F 62.1 °F 68% 29.87 in 10.0 mi East 5.8 mph - N/A   Overcast
11:22 AM 71.6 °F 62.6 °F 73% 29.90 in 10.0 mi ESE 4.6 mph - N/A   Scattered Clouds
11:53 AM 73.9 °F 62.1 °F 66% 29.87 in 10.0 mi Calm Calm - N/A   Scattered Clouds
12:53 PM 73.0 °F 61.0 °F 66% 29.87 in 10.0 mi SE 4.6 mph - N/A   Scattered Clouds
1:36 PM 71.6 °F 62.6 °F 73% 29.89 in 10.0 mi South 8.1 mph - 0.00 in Thunderstorm Mostly Cloudy
1:53 PM 71.1 °F 64.0 °F 78% 29.86 in 8.0 mi SSW 8.1 mph - 0.01 in Rain , Thunderstorm Light Rain
2:05 PM 69.8 °F 64.4 °F 83% 29.89 in 6.0 mi SSW 5.8 mph - 0.01 in Rain Light Rain
2:39 PM 71.6 °F 64.4 °F 78% 29.87 in 10.0 mi SSW 6.9 mph - 0.01 in   Overcast
2:48 PM 71.6 °F 62.6 °F 73% 29.87 in 10.0 mi SSW 5.8 mph - 0.01 in   Overcast
2:53 PM 72.0 °F 63.0 °F 73% 29.84 in 10.0 mi South 6.9 mph - 0.01 in   Overcast
3:53 PM 71.1 °F 64.9 °F 81% 29.84 in 10.0 mi North 5.8 mph - N/A   Overcast
4:34 PM 66.2 °F 64.4 °F 94% 29.88 in 1.8 mi NNE 4.6 mph - 0.14 in Rain Heavy Rain
4:43 PM 66.2 °F 64.4 °F 94% 29.88 in 1.5 mi NE 3.5 mph - 0.23 in Rain Heavy Rain
4:49 PM 66.2 °F 64.4 °F 94% 29.88 in 3.0 mi North 3.5 mph - 0.24 in Rain Rain
4:53 PM 66.9 °F 64.0 °F 90% 29.86 in 4.0 mi North 4.6 mph - 0.25 in Rain Rain
5:29 PM 66.2 °F 64.4 °F 94% 29.88 in 4.0 mi North 4.6 mph - 0.06 in Rain , Thunderstorm Light Thunderstorms and Rain
5:53 PM 68.0 °F 64.0 °F 87% 29.86 in 6.0 mi Calm Calm - 0.09 in Rain Light Rain
6:53 PM 68.0 °F 64.0 °F 87% 29.86 in 9.0 mi Calm Calm - 0.01 in   Overcast
7:53 PM 66.9 °F 64.0 °F 90% 29.86 in 7.0 mi Calm Calm - N/A   Mostly Cloudy
8:20 PM 66.2 °F 64.4 °F 94% 29.89 in 1.5 mi Calm Calm - N/A   Scattered Clouds
8:29 PM 66.2 °F 64.4 °F 94% 29.89 in 0.8 mi Calm Calm - N/A   Partly Cloudy
8:34 PM 66.2 °F 62.6 °F 88% 29.89 in 1.0 mi Calm Calm - N/A   Partly Cloudy
8:41 PM 64.4 °F 62.6 °F 94% 29.90 in 0.5 mi Calm Calm - N/A Fog Fog
8:45 PM 64.4 °F 62.6 °F 94% 29.90 in 1.0 mi Calm Calm - N/A   Mostly Cloudy
8:53 PM 64.9 °F 63.0 °F 93% 29.88 in 3.0 mi NE 3.5 mph - N/A   Mostly Cloudy
9:19 PM 64.4 °F 62.6 °F 94% 29.90 in 5.0 mi Calm Calm - N/A   Scattered Clouds
9:53 PM 64.9 °F 62.1 °F 90% 29.88 in 8.0 mi Calm Calm - N/A   Clear
10:53 PM 64.0 °F 62.1 °F 93% 29.89 in 9.0 mi Calm Calm - N/A   Overcast
11:25 PM 62.6 °F 60.8 °F 94% 29.92 in 2.5 mi Calm Calm - N/A   Mostly Cloudy
11:29 PM 62.6 °F 60.8 °F 94% 29.92 in 0.8 mi Calm Calm - N/A   Mostly Cloudy
11:38 PM 62.6 °F 60.8 °F 94% 29.92 in 0.2 mi Calm Calm - N/A Fog Fog
11:53 PM 63.0 °F 61.0 °F 93% 29.89 in 0.2 mi Calm Calm - N/A Fog Fog